Flag for Turkey Weather past 2 weeks in Gaziantep, Turkey

Now
70 °F

Passing clouds.


Feels Like: 70 °F
Forecast: 61 / 94 °F
Wind: 6 mph from East

Location: Gaziantep Airport

Current Time: Aug 31, 2015 at 5:44:12 AM

Latest Report: Aug 31, 2015 at 4:50 AM


Visibility: N/A

Pressure: 29.89 "Hg (27.06 "Hg at 856m altitude)

Humidity: 40%

Dew point: 45 °F

Location of GaziantepLocation

Historic Weather in Gaziantep — Graph

°F

Gaziantep temperature yesterday

Maximum temperature yesterday: 84 °F (at 9:20 AM)
Minimum temperature yesterday: 59 °F (at 3:50 AM)
Average temperature yesterday: 74 °F

Past Weeks' High & Low Weather Summary

 TemperatureHumidityPressure
High104 °F (Aug 19, 3:50 PM)83% (Aug 16, 4:20 AM)29.95 "Hg (Aug 16, 4:20 AM)
Low59 °F (Aug 30, 3:50 AM)8% (Aug 19, 3:20 PM)29.65 "Hg (Aug 23, 4:50 PM)
Average83 °F36%29.81 "Hg
* Reported Aug 16 4:20 AM — Aug 31 4:20 AM, Gaziantep, Weather by CustomWeather, © 2015

Note: Actual official high and low records may vary slightly from our data, if they occured in-between our weather recording intervals... More about our weather records

Advertising

Gaziantep weather history for previous 24 hours

 ConditionsComfort  
Time TempWeatherWind HumidityBarometerVisibility
4:20 AM
Mon, Aug 31
72 °FClear.6 mph38%29.89 "Hg10 mi
3:50 AM72 °FClear.5 mph36%29.89 "Hg10 mi
3:20 AM68 °FClear.5 mph43%29.86 "Hg10 mi
2:50 AM75 °FPassing clouds.9 mph29%29.86 "HgN/A
2:20 AM72 °FPassing clouds.8 mph36%29.86 "HgN/A
1:50 AM72 °FClear.7 mph36%29.86 "Hg10 mi
1:20 AM72 °FPassing clouds.9 mph36%29.86 "HgN/A
12:50 AM75 °FClear.7 mph29%29.86 "Hg10 mi
12:20 AM75 °FClear.17 mph31%29.86 "Hg10 mi
11:50 PM
Sun, Aug 30
73 °FClear.15 mph36%29.89 "Hg10 mi
11:20 PM72 °FPassing clouds.9 mph41%29.89 "HgN/A
10:50 PM72 °FPassing clouds.12 mph44%29.89 "HgN/A
10:20 PM73 °FPassing clouds.16 mph38%29.89 "HgN/A
9:50 PM72 °FPassing clouds.10 mph44%29.92 "HgN/A
9:20 PM73 °FPassing clouds.9 mph44%29.92 "HgN/A
8:50 PM73 °FThunderstorms. Passing clouds.8 mph44%29.89 "HgN/A
8:20 PM72 °FThunderstorms. Passing clouds.9 mph44%29.89 "HgN/A
7:59 PM75 °FSprinkles. Scattered clouds.7 mph39%29.89 "HgN/A
7:50 PM75 °FPassing clouds.3 mph34%29.89 "HgN/A
7:20 PM77 °FScattered clouds.2 mph30%29.86 "HgN/A
6:50 PM79 °FScattered clouds.3 mph30%29.86 "HgN/A
6:20 PM79 °FBroken clouds.3 mph28%29.86 "HgN/A
5:50 PM81 °FPartly sunny.10 mph26%29.86 "HgN/A
5:20 PM82 °FPartly sunny.12 mph21%29.86 "HgN/A
4:50 PM82 °FPartly sunny.17 mph23%29.86 "HgN/A
4:20 PM81 °FPartly sunny.17 mph26%29.86 "HgN/A
3:50 PM79 °FPartly sunny.16 mph28%29.89 "HgN/A
3:20 PM77 °FPartly sunny.16 mph32%29.89 "HgN/A
2:50 PM79 °FPartly sunny.7 mph32%29.92 "HgN/A
2:20 PM79 °FPartly sunny.9 mph28%29.92 "HgN/A
1:50 PM79 °FPartly sunny.18 mph30%29.89 "HgN/A
1:20 PM81 °FPartly sunny.14 mph30%29.92 "HgN/A
12:50 PM82 °FPartly sunny.8 mph28%29.89 "HgN/A
12:20 PM82 °FPartly sunny.5 mph35%29.89 "HgN/A
11:50 AM84 °FPartly sunny.No wind23%29.92 "HgN/A
11:20 AM84 °FScattered clouds.No wind23%29.92 "HgN/A
10:50 AM84 °FScattered clouds.1 mph27%29.92 "HgN/A
10:20 AM84 °FScattered clouds.3 mph25%29.89 "HgN/A
9:50 AM84 °FScattered clouds.3 mph23%29.92 "HgN/A
9:20 AM84 °FScattered clouds.3 mph25%29.89 "HgN/A
8:50 AM81 °FScattered clouds.No wind34%29.89 "HgN/A
8:20 AM77 °FScattered clouds.No wind39%29.89 "HgN/A
7:50 AM72 °FScattered clouds.No wind50%29.89 "HgN/A
7:20 AM64 °FSunny.No wind73%29.89 "Hg10 mi
6:50 AM63 °FClear.No wind68%29.89 "Hg10 mi
6:20 AM64 °FClear.1 mph56%29.89 "Hg10 mi
5:50 AM59 °FClear.1 mph72%29.89 "Hg10 mi
5:20 AM59 °FClear.1 mph72%29.86 "Hg10 mi
Weather by CustomWeather, © 2015

See weather overviewHow to use our weather pages